Location: Penton Mewsey
(51.2167°N, 1.5167°W)
Time: 13:16:00
(UTC+00:00)

STARLINK-1106 - Visible Passes

Search period start: 06 August 2020 00:00
Search period end: 16 August 2020 00:00
Orbit: 549 x 550 km, 53.0° (Epoch: 05 August)

Date Brightness Start Highest point End Pass type
(mag) Time Alt. Az. Time Alt. Az. Time Alt. Az.
06 Aug 3.6 20:22:19 10° WNW 20:26:29 87° SSW 20:30:39 10° ESE visible
06 Aug 4.8 22:02:09 10° W 22:05:45 29° SW 22:06:40 26° SSW visible
07 Aug 3.7 20:16:53 10° WNW 20:21:03 76° SSW 20:25:11 10° ESE visible
07 Aug 5.1 21:56:53 10° W 22:00:11 23° SW 22:01:11 21° SSW visible
08 Aug 3.8 20:11:30 10° WNW 20:15:37 65° SSW 20:19:43 10° SE visible
08 Aug 5.4 21:51:45 10° W 21:54:38 18° SW 21:55:48 17° SSW visible
09 Aug 5.8 21:46:51 10° W 21:49:08 14° SW 21:50:30 13° SSW visible
10 Aug 6.1 21:42:29 10° WSW 21:43:37 11° SW 21:44:47 10° SSW visible
